Location: Ahausen
(50.4985°N, 8.2722°E)
Time: 17:29:20
(UTC+00:00)

A-11 Canister half - All Passes

Search period start: 26 May 2022 00:00
Search period end: 05 June 2022 00:00
Orbit: 1527 x 1682 km, 47.3° (Epoch: 25 May)

Date Brightness Start Highest point End Pass type
(mag) Time Alt. Az. Time Alt. Az. Time Alt. Az.
26 May - 00:31:55 10° S 00:38:43 23° SE 00:45:36 10° E visible
26 May - 02:33:06 10° SW 02:42:06 54° SSE 02:51:23 10° E visible
26 May - 04:37:09 10° W 04:46:36 75° S 04:56:21 10° E daylight
26 May - 06:41:52 10° W 06:51:14 60° SSW 07:00:55 10° SE daylight
26 May - 08:47:07 10° W 08:55:01 29° SW 09:03:06 10° SSE daylight
27 May - 00:10:34 10° S 00:17:09 22° SE 00:23:48 10° E visible
27 May - 02:11:30 10° SW 02:20:28 53° SSE 02:29:40 10° E visible
27 May - 04:15:30 10° W 04:24:55 74° S 04:34:39 10° E daylight
27 May - 06:20:12 10° W 06:29:34 62° SSW 06:39:15 10° SE daylight
27 May - 08:25:23 10° W 08:33:23 30° SW 08:41:36 10° SSE daylight
27 May - 23:49:14 10° S 23:55:35 21° SE 00:01:59 10° E visible
28 May - 01:49:56 10° SW 01:58:50 51° SSE 02:07:58 10° E visible
28 May - 03:53:51 10° WSW 04:03:15 74° S 04:12:57 10° E daylight
28 May - 05:58:33 10° W 06:07:55 63° SSW 06:17:35 10° ESE daylight
28 May - 08:03:40 10° W 08:11:47 32° SW 08:20:06 10° SSE daylight
28 May - 23:27:56 10° S 23:34:01 20° SE 23:40:09 10° E visible
29 May - 01:28:22 10° SW 01:37:12 50° SSE 01:46:16 10° E visible
29 May - 03:32:12 10° WSW 03:41:34 74° S 03:51:14 10° E daylight
29 May - 05:36:53 10° W 05:46:15 64° SSW 05:55:55 10° ESE daylight
29 May - 07:41:58 10° W 07:50:10 33° SW 07:58:36 10° SSE daylight
29 May - 23:06:39 10° SSE 23:12:26 19° SE 23:18:17 10° E visible
30 May - 01:06:48 10° SW 01:15:34 48° SSE 01:24:34 10° E visible
30 May - 03:10:34 10° WSW 03:19:54 73° S 03:29:33 10° E daylight
30 May - 05:15:14 10° W 05:24:35 65° SSW 05:34:15 10° ESE daylight
30 May - 07:20:15 10° W 07:28:33 34° SW 07:37:04 10° SSE daylight
30 May - 22:45:24 10° SSE 22:50:53 17° SE 22:56:25 10° E visible
31 May - 00:45:14 10° SW 00:53:57 47° SSE 01:02:52 10° E visible
31 May - 02:48:54 10° WSW 02:58:14 73° S 03:07:51 10° E daylight
31 May - 04:53:35 10° W 05:02:55 66° SSW 05:12:35 10° ESE daylight
31 May - 06:58:33 10° W 07:06:55 36° SW 07:15:32 10° SSE daylight
31 May - 22:24:11 10° SSE 22:29:19 16° SE 22:34:30 10° E visible
01 Jun - 00:23:41 10° SW 00:32:20 45° SSE 00:41:10 10° E visible
01 Jun - 02:27:16 10° WSW 02:36:35 72° S 02:46:09 10° E visible
01 Jun - 04:31:55 10° W 04:41:16 67° SSW 04:50:54 10° ESE daylight
01 Jun - 06:36:52 10° W 06:45:18 37° SW 06:53:59 10° SSE daylight
01 Jun - 08:45:54 10° WSW 08:48:05 11° WSW 08:50:17 10° SW daylight
01 Jun - 22:03:00 10° SSE 22:07:47 15° SE 22:12:34 10° E visible
02 Jun - 00:02:08 10° SW 00:10:43 44° SSE 00:19:27 10° E visible
02 Jun - 02:05:38 10° WSW 02:14:55 72° S 02:24:27 10° E visible
02 Jun - 04:10:16 10° W 04:19:36 68° SSW 04:29:13 10° ESE daylight
02 Jun - 06:15:11 10° W 06:23:41 38° SW 06:32:27 10° SSE daylight
02 Jun - 08:23:28 10° WSW 08:26:32 12° WSW 08:29:37 10° SW daylight
02 Jun - 21:41:53 10° SSE 21:46:13 14° SE 21:50:34 10° E visible
02 Jun - 23:40:36 10° SSW 23:49:07 42° SE 23:57:45 10° E visible
03 Jun - 01:43:59 10° WSW 01:53:15 71° S 02:02:46 10° E visible
03 Jun - 03:48:37 10° W 03:57:56 69° SSW 04:07:33 10° ESE daylight
03 Jun - 05:53:29 10° W 06:02:03 40° SW 06:10:52 10° SSE daylight
03 Jun - 08:01:16 10° W 08:04:58 13° SW 08:08:42 10° SSW daylight
03 Jun - 21:20:50 10° SSE 21:24:40 13° SE 21:28:31 10° E visible
03 Jun - 23:19:04 10° SSW 23:27:30 41° SE 23:36:03 10° E visible
04 Jun - 01:22:21 10° WSW 01:31:36 70° SSE 01:41:04 10° E visible
04 Jun - 03:26:57 10° W 03:36:17 70° SSW 03:45:52 10° ESE daylight
04 Jun - 05:31:49 10° W 05:40:26 41° SW 05:49:19 10° SSE daylight
04 Jun - 07:39:12 10° W 07:43:24 14° SW 07:47:39 10° SSW daylight
04 Jun - 20:59:53 10° SE 21:03:08 12° SE 21:06:22 10° ESE visible
04 Jun - 22:57:32 10° SSW 23:05:54 39° SE 23:14:21 10° E visible
